"datetime","temp","dp","rain_mm","uv","mb"
"2020-08-08 00:00:00",19.6,15.9,0.0,0.0,1017.0
"2020-08-08 00:01:00",19.5,15.8,0.0,0.0,1017.0
"2020-08-08 00:02:00",19.5,15.8,0.0,0.0,1016.9
"2020-08-08 00:03:00",19.5,15.8,0.0,0.0,1016.9
"2020-08-08 00:04:00",19.5,15.8,0.0,0.0,1016.9
"2020-08-08 00:05:00",19.4,15.7,0.0,0.0,1016.9
"2020-08-08 00:06:00",19.4,15.7,0.0,0.0,1016.9
"2020-08-08 00:07:00",19.4,15.7,0.0,0.0,1016.9
"2020-08-08 00:08:00",19.4,15.9,0.0,0.0,1016.9
"2020-08-08 00:09:00",19.4,15.9,0.0,0.0,1017.0
"2020-08-08 00:10:00",19.4,15.9,0.0,0.0,1017.0
"2020-08-08 00:11:00",19.3,15.8,0.0,0.0,1017.0
"2020-08-08 00:12:00",19.4,15.9,0.0,0.0,1017.0
"2020-08-08 00:13:00",19.3,15.8,0.0,0.0,1017.0
"2020-08-08 00:14:00",19.3,15.8,0.0,0.0,1017.1
"2020-08-08 00:15:00",19.3,15.8,0.0,0.0,1017.0
"2020-08-08 00:16:00",19.3,15.8,0.0,0.0,1017.0
"2020-08-08 00:17:00",19.3,15.8,0.0,0.0,1017.0
"2020-08-08 00:18:00",19.3,15.8,0.0,0.0,1017.0
"2020-08-08 00:19:00",19.3,15.8,0.0,0.0,1017.0
"2020-08-08 00:20:00",19.2,15.7,0.0,0.0,1017.0
"2020-08-08 00:21:00",19.2,15.7,0.0,0.0,1017.0
"2020-08-08 00:22:00",19.1,15.6,0.0,0.0,1017.0
"2020-08-08 00:23:00",19.1,15.6,0.0,0.0,1017.0
"2020-08-08 00:24:00",19.1,15.6,0.0,0.0,1017.0
"2020-08-08 00:25:00",19.0,15.5,0.0,0.0,1017.1
"2020-08-08 00:26:00",19.0,15.5,0.0,0.0,1017.0
"2020-08-08 00:27:00",18.9,15.4,0.0,0.0,1017.0
"2020-08-08 00:28:00",18.9,15.4,0.0,0.0,1017.0
"2020-08-08 00:29:00",18.9,15.4,0.0,0.0,1017.0
"2020-08-08 00:30:00",18.9,15.4,0.0,0.0,1017.1
"2020-08-08 00:31:00",18.8,15.3,0.0,0.0,1017.1
"2020-08-08 00:32:00",18.8,15.3,0.0,0.0,1017.1
"2020-08-08 00:33:00",18.8,15.3,0.0,0.0,1017.1
"2020-08-08 00:34:00",18.7,15.2,0.0,0.0,1017.1
"2020-08-08 00:35:00",18.7,15.4,0.0,0.0,1017.1
"2020-08-08 00:36:00",18.7,15.4,0.0,0.0,1017.1
"2020-08-08 00:37:00",18.7,15.4,0.0,0.0,1017.0
"2020-08-08 00:38:00",18.8,15.5,0.0,0.0,1017.0
"2020-08-08 00:39:00",18.8,15.5,0.0,0.0,1017.0
"2020-08-08 00:40:00",18.8,15.5,0.0,0.0,1017.0
"2020-08-08 00:41:00",18.7,15.4,0.0,0.0,1017.0
"2020-08-08 00:42:00",18.8,15.5,0.0,0.0,1017.0
"2020-08-08 00:43:00",18.8,15.5,0.0,0.0,1017.0
"2020-08-08 00:44:00",18.7,15.4,0.0,0.0,1017.0
"2020-08-08 00:45:00",18.7,15.4,0.0,0.0,1017.0
"2020-08-08 00:46:00",18.6,15.3,0.0,0.0,1017.0
"2020-08-08 00:47:00",18.6,15.3,0.0,0.0,1017.0
"2020-08-08 00:48:00",18.6,15.3,0.0,0.0,1017.0
"2020-08-08 00:49:00",18.6,15.3,0.0,0.0,1017.0
"2020-08-08 00:50:00",18.6,15.3,0.0,0.0,1017.0
"2020-08-08 00:51:00",18.6,15.3,0.0,0.0,1017.0
"2020-08-08 00:52:00",18.6,15.3,0.0,0.0,1016.9
"2020-08-08 00:53:00",18.6,15.3,0.0,0.0,1016.9
"2020-08-08 00:54:00",18.6,15.3,0.0,0.0,1016.9
"2020-08-08 00:55:00",18.6,15.3,0.0,0.0,1016.9
"2020-08-08 00:56:00",18.5,15.2,0.0,0.0,1016.9
"2020-08-08 00:57:00",18.4,15.1,0.0,0.0,1016.9
"2020-08-08 00:58:00",18.4,15.1,0.0,0.0,1016.9
"2020-08-08 00:59:00",18.4,15.1,0.0,0.0,1016.9
"2020-08-08 01:00:00",18.4,15.3,0.0,0.0,1016.9
"2020-08-08 01:01:00",18.4,15.3,0.0,0.0,1016.9
"2020-08-08 01:02:00",18.4,15.3,0.0,0.0,1016.9
"2020-08-08 01:03:00",18.3,15.2,0.0,0.0,1016.8
"2020-08-08 01:04:00",18.3,15.0,0.0,0.0,1016.8
"2020-08-08 01:05:00",18.2,15.1,0.0,0.0,1016.8
"2020-08-08 01:06:00",18.2,15.1,0.0,0.0,1016.8
"2020-08-08 01:07:00",18.2,15.1,0.0,0.0,1016.8
"2020-08-08 01:08:00",18.2,15.1,0.0,0.0,1016.8
"2020-08-08 01:09:00",18.2,15.1,0.0,0.0,1016.8
"2020-08-08 01:10:00",18.2,15.1,0.0,0.0,1016.8
"2020-08-08 01:11:00",18.2,15.1,0.0,0.0,1016.7
"2020-08-08 01:12:00",18.2,15.1,0.0,0.0,1016.8
"2020-08-08 01:13:00",18.1,15.0,0.0,0.0,1016.7
"2020-08-08 01:14:00",18.1,15.0,0.0,0.0,1016.8
"2020-08-08 01:15:00",18.1,15.0,0.0,0.0,1016.8
"2020-08-08 01:16:00",18.1,15.0,0.0,0.0,1016.8
"2020-08-08 01:17:00",18.1,15.0,0.0,0.0,1016.8
"2020-08-08 01:18:00",18.1,15.2,0.0,0.0,1016.8
"2020-08-08 01:19:00",18.1,15.2,0.0,0.0,1016.8
"2020-08-08 01:20:00",18.1,15.2,0.0,0.0,1016.9
"2020-08-08 01:21:00",18.1,15.2,0.0,0.0,1016.9
"2020-08-08 01:22:00",18.1,15.2,0.0,0.0,1016.8
"2020-08-08 01:23:00",18.1,15.2,0.0,0.0,1016.9
"2020-08-08 01:24:00",18.1,15.2,0.0,0.0,1016.8
"2020-08-08 01:25:00",18.1,15.2,0.0,0.0,1016.8
"2020-08-08 01:26:00",18.1,15.2,0.0,0.0,1016.8
"2020-08-08 01:27:00",18.1,15.2,0.0,0.0,1016.8
"2020-08-08 01:28:00",18.1,15.2,0.0,0.0,1016.8
"2020-08-08 01:29:00",18.1,15.2,0.0,0.0,1016.8
"2020-08-08 01:30:00",18.1,15.2,0.0,0.0,1016.8
"2020-08-08 01:31:00",18.0,15.1,0.0,0.0,1016.7
"2020-08-08 01:32:00",18.0,15.1,0.0,0.0,1016.7
"2020-08-08 01:33:00",17.9,15.0,0.0,0.0,1016.7
"2020-08-08 01:34:00",17.9,15.0,0.0,0.0,1016.7
"2020-08-08 01:35:00",17.9,15.0,0.0,0.0,1016.7
"2020-08-08 01:36:00",17.9,15.0,0.0,0.0,1016.7
"2020-08-08 01:37:00",17.9,15.0,0.0,0.0,1016.7
"2020-08-08 01:38:00",17.9,15.0,0.0,0.0,1016.7
"2020-08-08 01:39:00",17.9,15.0,0.0,0.0,1016.8
"2020-08-08 01:40:00",17.8,14.9,0.0,0.0,1016.8
"2020-08-08 01:41:00",17.8,14.9,0.0,0.0,1016.8
"2020-08-08 01:42:00",17.8,14.9,0.0,0.0,1016.8
"2020-08-08 01:43:00",17.8,15.1,0.0,0.0,1016.9
"2020-08-08 01:44:00",17.7,15.0,0.0,0.0,1016.9
"2020-08-08 01:45:00",17.7,15.0,0.0,0.0,1017.0
"2020-08-08 01:46:00",17.7,15.0,0.0,0.0,1016.9
"2020-08-08 01:47:00",17.7,15.0,0.0,0.0,1016.9
"2020-08-08 01:48:00",17.7,15.0,0.0,0.0,1017.0
"2020-08-08 01:49:00",17.7,15.0,0.0,0.0,1016.9
"2020-08-08 01:50:00",17.7,15.0,0.0,0.0,1016.9
"2020-08-08 01:51:00",17.7,15.0,0.0,0.0,1016.9
"2020-08-08 01:52:00",17.7,15.0,0.0,0.0,1016.9
"2020-08-08 01:53:00",17.7,15.0,0.0,0.0,1016.9
"2020-08-08 01:54:00",17.7,15.0,0.0,0.0,1016.9
"2020-08-08 01:55:00",17.7,15.0,0.0,0.0,1016.9
"2020-08-08 01:56:00",17.6,14.9,0.0,0.0,1016.9
"2020-08-08 01:57:00",17.6,14.9,0.0,0.0,1016.9
"2020-08-08 01:58:00",17.6,14.9,0.0,0.0,1016.8
"2020-08-08 01:59:00",17.6,14.9,0.0,0.0,1016.9
"2020-08-08 02:00:00",17.6,14.9,0.0,0.0,1016.8
"2020-08-08 02:01:00",17.5,14.8,0.0,0.0,1016.8
"2020-08-08 02:02:00",17.5,14.8,0.0,0.0,1016.9
"2020-08-08 02:03:00",17.5,14.8,0.0,0.0,1016.8
"2020-08-08 02:04:00",17.4,14.7,0.0,0.0,1016.8
"2020-08-08 02:05:00",17.4,14.7,0.0,0.0,1016.8
"2020-08-08 02:06:00",17.4,14.7,0.0,0.0,1016.8
"2020-08-08 02:07:00",17.4,14.7,0.0,0.0,1016.8
"2020-08-08 02:08:00",17.4,14.7,0.0,0.0,1016.7
"2020-08-08 02:09:00",17.4,14.9,0.0,0.0,1016.8
"2020-08-08 02:10:00",17.4,14.9,0.0,0.0,1016.7
"2020-08-08 02:11:00",17.4,14.9,0.0,0.0,1016.8
"2020-08-08 02:12:00",17.4,14.9,0.0,0.0,1016.7
"2020-08-08 02:13:00",17.3,14.8,0.0,0.0,1016.7
"2020-08-08 02:14:00",17.4,14.9,0.0,0.0,1016.7
"2020-08-08 02:15:00",17.3,14.8,0.0,0.0,1016.7
"2020-08-08 02:16:00",17.3,14.8,0.0,0.0,1016.7
"2020-08-08 02:17:00",17.4,14.9,0.0,0.0,1016.8
"2020-08-08 02:18:00",17.4,14.9,0.0,0.0,1016.8
"2020-08-08 02:19:00",17.4,14.9,0.0,0.0,1016.8
"2020-08-08 02:20:00",17.3,14.8,0.0,0.0,1016.8
"2020-08-08 02:21:00",17.4,15.0,0.0,0.0,1016.8
"2020-08-08 02:22:00",17.3,14.9,0.0,0.0,1016.8
"2020-08-08 02:23:00",17.3,14.9,0.0,0.0,1016.7
"2020-08-08 02:24:00",17.3,14.9,0.0,0.0,1016.8
"2020-08-08 02:25:00",17.4,15.0,0.0,0.0,1016.7
"2020-08-08 02:26:00",17.4,15.0,0.0,0.0,1016.7
"2020-08-08 02:27:00",17.4,15.0,0.0,0.0,1016.8
"2020-08-08 02:28:00",17.4,15.0,0.0,0.0,1016.8
"2020-08-08 02:29:00",17.4,15.0,0.0,0.0,1016.8
"2020-08-08 02:30:00",17.4,15.0,0.0,0.0,1016.7
"2020-08-08 02:31:00",17.4,15.0,0.0,0.0,1016.7
"2020-08-08 02:32:00",17.4,15.0,0.0,0.0,1016.8
"2020-08-08 02:33:00",17.4,15.0,0.0,0.0,1016.8
"2020-08-08 02:34:00",17.4,15.0,0.0,0.0,1016.8
"2020-08-08 02:35:00",17.4,15.0,0.0,0.0,1016.8
"2020-08-08 02:36:00",17.4,15.0,0.0,0.0,1016.8
"2020-08-08 02:37:00",17.4,15.0,0.0,0.0,1016.8
"2020-08-08 02:38:00",17.4,15.0,0.0,0.0,1016.8
"2020-08-08 02:39:00",17.4,15.0,0.0,0.0,1016.8
"2020-08-08 02:40:00",17.5,15.1,0.0,0.0,1016.8
"2020-08-08 02:41:00",17.4,15.0,0.0,0.0,1016.8
"2020-08-08 02:42:00",17.4,15.0,0.0,0.0,1016.8
"2020-08-08 02:43:00",17.4,15.0,0.0,0.0,1016.8
"2020-08-08 02:44:00",17.5,15.1,0.0,0.0,1016.8
"2020-08-08 02:45:00",17.5,15.1,0.0,0.0,1016.8
"2020-08-08 02:46:00",17.5,15.1,0.0,0.0,1016.8
"2020-08-08 02:47:00",17.5,15.1,0.0,0.0,1016.8
"2020-08-08 02:48:00",17.5,15.3,0.0,0.0,1016.8
"2020-08-08 02:49:00",17.6,15.4,0.0,0.0,1016.8
"2020-08-08 02:50:00",17.6,15.4,0.0,0.0,1016.7
"2020-08-08 02:51:00",17.6,15.4,0.0,0.0,1016.8
"2020-08-08 02:52:00",17.6,15.2,0.0,0.0,1016.8
"2020-08-08 02:53:00",17.6,15.2,0.0,0.0,1016.8
"2020-08-08 02:54:00",17.6,15.2,0.0,0.0,1016.8
"2020-08-08 02:55:00",17.6,15.4,0.0,0.0,1016.8
"2020-08-08 02:56:00",17.6,15.4,0.0,0.0,1016.8
"2020-08-08 02:57:00",17.6,15.4,0.0,0.0,1016.8
"2020-08-08 02:58:00",17.7,15.5,0.0,0.0,1016.8
"2020-08-08 02:59:00",17.7,15.5,0.0,0.0,1016.8
"2020-08-08 03:00:00",17.7,15.5,0.0,0.0,1016.8
"2020-08-08 03:01:00",17.7,15.5,0.0,0.0,1016.8
"2020-08-08 03:02:00",17.7,15.5,0.0,0.0,1016.8
"2020-08-08 03:03:00",17.7,15.5,0.0,0.0,1016.8
"2020-08-08 03:04:00",17.7,15.5,0.0,0.0,1016.8
"2020-08-08 03:05:00",17.7,15.5,0.0,0.0,1016.8
"2020-08-08 03:06:00",17.8,15.6,0.0,0.0,1016.7
"2020-08-08 03:07:00",17.8,15.6,0.0,0.0,1016.7
"2020-08-08 03:08:00",17.8,15.6,0.0,0.0,1016.7
"2020-08-08 03:09:00",17.8,15.6,0.0,0.0,1016.7
"2020-08-08 03:10:00",17.7,15.5,0.0,0.0,1016.7
"2020-08-08 03:11:00",17.7,15.5,0.0,0.0,1016.6
"2020-08-08 03:12:00",17.7,15.5,0.0,0.0,1016.6
"2020-08-08 03:13:00",17.7,15.5,0.0,0.0,1016.6
"2020-08-08 03:14:00",17.7,15.5,0.0,0.0,1016.5
"2020-08-08 03:15:00",17.7,15.5,0.0,0.0,1016.5
"2020-08-08 03:16:00",17.7,15.5,0.0,0.0,1016.5
"2020-08-08 03:17:00",17.7,15.5,0.0,0.0,1016.6
"2020-08-08 03:18:00",17.7,15.5,0.0,0.0,1016.5
"2020-08-08 03:19:00",17.7,15.5,0.0,0.0,1016.6
"2020-08-08 03:20:00",17.7,15.5,0.0,0.0,1016.6
"2020-08-08 03:21:00",17.7,15.5,0.0,0.0,1016.6
"2020-08-08 03:22:00",17.7,15.5,0.0,0.0,1016.6
"2020-08-08 03:23:00",17.7,15.5,0.0,0.0,1016.6
"2020-08-08 03:24:00",17.7,15.5,0.0,0.0,1016.6
"2020-08-08 03:25:00",17.7,15.7,0.0,0.0,1016.6
"2020-08-08 03:26:00",17.7,15.7,0.0,0.0,1016.6
"2020-08-08 03:27:00",17.7,15.7,0.0,0.0,1016.6
"2020-08-08 03:28:00",17.7,15.7,0.0,0.0,1016.6
"2020-08-08 03:29:00",17.8,15.8,0.0,0.0,1016.6
"2020-08-08 03:30:00",17.8,15.8,0.0,0.0,1016.6
"2020-08-08 03:31:00",17.8,15.8,0.0,0.0,1016.6
"2020-08-08 03:32:00",17.8,15.8,0.0,0.0,1016.6
"2020-08-08 03:33:00",17.9,15.9,0.0,0.0,1016.6
"2020-08-08 03:34:00",17.9,15.9,0.0,0.0,1016.6
"2020-08-08 03:35:00",17.9,15.9,0.0,0.0,1016.6
"2020-08-08 03:36:00",17.9,15.9,0.0,0.0,1016.6
"2020-08-08 03:37:00",17.9,15.9,0.0,0.0,1016.6
"2020-08-08 03:38:00",18.0,16.0,0.0,0.0,1016.6
"2020-08-08 03:39:00",18.0,16.0,0.0,0.0,1016.6
"2020-08-08 03:40:00",18.1,16.1,0.0,0.0,1016.6
"2020-08-08 03:41:00",18.1,16.1,0.0,0.0,1016.6
"2020-08-08 03:42:00",18.1,16.1,0.0,0.0,1016.6
"2020-08-08 03:43:00",18.1,16.1,0.0,0.0,1016.6
"2020-08-08 03:44:00",18.1,16.1,0.0,0.0,1016.6
"2020-08-08 03:45:00",18.1,16.1,0.0,0.0,1016.6
"2020-08-08 03:46:00",18.1,16.1,0.0,0.0,1016.6
"2020-08-08 03:47:00",18.1,16.1,0.0,0.0,1016.6
"2020-08-08 03:48:00",18.1,16.1,0.0,0.0,1016.6
"2020-08-08 03:49:00",18.2,16.2,0.0,0.0,1016.6
"2020-08-08 03:50:00",18.2,16.2,0.0,0.0,1016.6
"2020-08-08 03:51:00",18.2,16.2,0.0,0.0,1016.6
"2020-08-08 03:52:00",18.2,16.2,0.0,0.0,1016.6
"2020-08-08 03:53:00",18.2,16.2,0.0,0.0,1016.5
"2020-08-08 03:54:00",18.3,16.3,0.0,0.0,1016.6
"2020-08-08 03:55:00",18.3,16.3,0.0,0.0,1016.6
"2020-08-08 03:56:00",18.3,16.3,0.0,0.0,1016.5
"2020-08-08 03:57:00",18.4,16.4,0.0,0.0,1016.6
"2020-08-08 03:58:00",18.4,16.4,0.0,0.0,1016.5
"2020-08-08 03:59:00",18.4,16.4,0.0,0.0,1016.5
"2020-08-08 04:00:00",18.4,16.4,0.0,0.0,1016.6
"2020-08-08 04:01:00",18.4,16.4,0.0,0.0,1016.6
"2020-08-08 04:02:00",18.5,16.5,0.0,0.0,1016.6
"2020-08-08 04:03:00",18.5,16.5,0.0,0.0,1016.6
"2020-08-08 04:04:00",18.5,16.5,0.0,0.0,1016.6
"2020-08-08 04:05:00",18.6,16.6,0.0,0.0,1016.6
"2020-08-08 04:06:00",18.6,16.6,0.0,0.0,1016.6
"2020-08-08 04:07:00",18.6,16.6,0.0,0.0,1016.6
"2020-08-08 04:08:00",18.6,16.6,0.0,0.0,1016.6
"2020-08-08 04:09:00",18.6,16.6,0.0,0.0,1016.6
"2020-08-08 04:10:00",18.7,16.7,0.0,0.0,1016.7
"2020-08-08 04:11:00",18.7,16.7,0.0,0.0,1016.6
"2020-08-08 04:12:00",18.8,16.8,0.0,0.0,1016.7
"2020-08-08 04:13:00",18.8,16.8,0.0,0.0,1016.7
"2020-08-08 04:14:00",18.7,16.5,0.0,0.0,1016.7
"2020-08-08 04:15:00",18.7,16.5,0.0,0.0,1016.7
"2020-08-08 04:16:00",18.7,16.5,0.0,0.0,1016.7
"2020-08-08 04:17:00",18.8,16.8,0.0,0.0,1016.7
"2020-08-08 04:18:00",18.8,16.8,0.0,0.0,1016.7
"2020-08-08 04:19:00",18.8,16.8,0.0,0.0,1016.7
"2020-08-08 04:20:00",18.8,16.8,0.0,0.0,1016.7
"2020-08-08 04:21:00",18.8,16.6,0.0,0.0,1016.8
"2020-08-08 04:22:00",18.9,16.9,0.0,0.0,1016.8
"2020-08-08 04:23:00",18.9,16.9,0.0,0.0,1016.8
"2020-08-08 04:24:00",18.9,16.9,0.0,0.0,1016.8
"2020-08-08 04:25:00",19.0,17.0,0.0,0.0,1016.7
"2020-08-08 04:26:00",19.0,17.0,0.0,0.0,1016.7
"2020-08-08 04:27:00",19.0,17.0,0.0,0.0,1016.8
"2020-08-08 04:28:00",19.0,17.0,0.0,0.0,1016.7
"2020-08-08 04:29:00",19.0,17.0,0.0,0.0,1016.7
"2020-08-08 04:30:00",19.1,17.1,0.0,0.0,1016.7
"2020-08-08 04:31:00",19.1,17.1,0.0,0.0,1016.6
"2020-08-08 04:32:00",19.1,17.1,0.0,0.0,1016.6
"2020-08-08 04:33:00",19.1,16.9,0.0,0.0,1016.5
"2020-08-08 04:34:00",19.1,16.9,0.0,0.0,1016.6
"2020-08-08 04:35:00",19.1,16.9,0.0,0.0,1016.6
"2020-08-08 04:36:00",19.1,16.9,0.0,0.0,1016.6
"2020-08-08 04:37:00",19.1,16.9,0.0,0.0,1016.6
"2020-08-08 04:38:00",19.1,16.9,0.0,0.0,1016.7
"2020-08-08 04:39:00",19.2,17.2,0.0,0.0,1016.7
"2020-08-08 04:40:00",19.2,17.2,0.0,0.0,1016.8
"2020-08-08 04:41:00",19.2,17.2,0.0,0.0,1016.8
"2020-08-08 04:42:00",19.2,17.2,0.0,0.0,1016.8
"2020-08-08 04:43:00",19.2,17.2,0.0,0.0,1016.8
"2020-08-08 04:44:00",19.3,17.3,0.0,0.0,1016.8
"2020-08-08 04:45:00",19.2,17.2,0.0,0.0,1016.8
"2020-08-08 04:46:00",19.3,17.3,0.0,0.0,1016.9
"2020-08-08 04:47:00",19.3,17.3,0.0,0.0,1016.8
"2020-08-08 04:48:00",19.2,17.0,0.0,0.0,1016.8
"2020-08-08 04:49:00",19.2,17.2,0.0,0.0,1016.8
"2020-08-08 04:50:00",19.3,17.3,0.0,0.0,1016.7
"2020-08-08 04:51:00",19.3,17.3,0.0,0.0,1016.8
"2020-08-08 04:52:00",19.3,17.3,0.0,0.0,1016.7
"2020-08-08 04:53:00",19.3,17.3,0.0,0.0,1016.7
"2020-08-08 04:54:00",19.3,17.3,0.0,0.0,1016.7
"2020-08-08 04:55:00",19.3,17.3,0.0,0.0,1016.8
"2020-08-08 04:56:00",19.3,17.3,0.0,0.0,1016.8
"2020-08-08 04:57:00",19.4,17.4,0.0,0.0,1016.8
"2020-08-08 04:58:00",19.4,17.4,0.0,0.0,1016.8
"2020-08-08 04:59:00",19.4,17.4,0.0,0.0,1016.9
"2020-08-08 05:00:00",19.4,17.4,0.0,0.0,1016.9
"2020-08-08 05:01:00",19.4,17.4,0.0,0.0,1016.9
"2020-08-08 05:02:00",19.5,17.5,0.0,0.0,1016.9
"2020-08-08 05:03:00",19.5,17.5,0.0,0.0,1016.9
"2020-08-08 05:04:00",19.5,17.5,0.0,0.0,1016.9
"2020-08-08 05:05:00",19.6,17.6,0.0,0.0,1016.9
"2020-08-08 05:06:00",19.6,17.6,0.0,0.0,1016.9
"2020-08-08 05:07:00",19.6,17.6,0.0,0.0,1016.9
"2020-08-08 05:08:00",19.6,17.6,0.0,0.0,1016.9
"2020-08-08 05:09:00",19.6,17.6,0.0,0.0,1017.0
"2020-08-08 05:10:00",19.6,17.6,0.0,0.0,1017.0
"2020-08-08 05:11:00",19.6,17.6,0.0,0.0,1017.0
"2020-08-08 05:12:00",19.6,17.6,0.0,0.0,1017.0
"2020-08-08 05:13:00",19.6,17.4,0.0,0.0,1017.0
"2020-08-08 05:14:00",19.6,17.4,0.0,0.0,1017.0
"2020-08-08 05:15:00",19.6,17.4,0.0,0.0,1017.1
"2020-08-08 05:16:00",19.6,17.4,0.0,0.0,1017.0
"2020-08-08 05:17:00",19.6,17.6,0.0,0.0,1017.0
"2020-08-08 05:18:00",19.6,17.6,0.0,0.0,1017.0
"2020-08-08 05:19:00",19.6,17.6,0.0,0.0,1017.0
"2020-08-08 05:20:00",19.6,17.4,0.0,0.0,1016.9
"2020-08-08 05:21:00",19.6,17.4,0.0,0.0,1016.9
"2020-08-08 05:22:00",19.6,17.4,0.0,0.0,1016.9
"2020-08-08 05:23:00",19.6,17.4,0.0,0.0,1016.9
"2020-08-08 05:24:00",19.6,17.6,0.0,0.0,1016.9
"2020-08-08 05:25:00",19.6,17.6,0.0,0.0,1016.9
"2020-08-08 05:26:00",19.6,17.6,0.0,0.0,1016.9
"2020-08-08 05:27:00",19.6,17.6,0.0,0.0,1016.9
"2020-08-08 05:28:00",19.6,17.6,0.0,0.0,1016.9
"2020-08-08 05:29:00",19.6,17.6,0.0,0.0,1017.0
"2020-08-08 05:30:00",19.6,17.6,0.0,0.0,1017.0
"2020-08-08 05:31:00",19.6,17.6,0.0,0.0,1016.9
"2020-08-08 05:32:00",19.6,17.6,0.0,0.0,1017.0
"2020-08-08 05:33:00",19.6,17.6,0.0,0.0,1016.9
"2020-08-08 05:34:00",19.6,17.6,0.0,0.0,1016.9
"2020-08-08 05:35:00",19.6,17.6,0.0,0.0,1017.0
"2020-08-08 05:36:00",19.6,17.6,0.0,0.0,1016.9
"2020-08-08 05:37:00",19.6,17.6,0.0,0.0,1016.9
"2020-08-08 05:38:00",19.6,17.6,0.0,0.0,1016.9
"2020-08-08 05:39:00",19.6,17.6,0.0,0.0,1016.9
"2020-08-08 05:40:00",19.6,17.6,0.0,0.0,1016.9
"2020-08-08 05:41:00",19.6,17.6,0.0,0.0,1016.8
"2020-08-08 05:42:00",19.6,17.6,0.0,0.0,1016.8
"2020-08-08 05:43:00",19.6,17.6,0.0,0.0,1016.9
"2020-08-08 05:44:00",19.7,17.7,0.0,0.0,1016.9
"2020-08-08 05:45:00",19.7,17.7,0.0,0.0,1016.8
"2020-08-08 05:46:00",19.7,17.7,0.0,0.0,1016.9
"2020-08-08 05:47:00",19.6,17.6,0.0,0.0,1016.9
"2020-08-08 05:48:00",19.6,17.6,0.0,0.0,1016.9
"2020-08-08 05:49:00",19.6,17.6,0.0,0.0,1016.9
"2020-08-08 05:50:00",19.6,17.6,0.0,0.0,1016.9
"2020-08-08 05:51:00",19.6,17.6,0.0,0.0,1017.0
"2020-08-08 05:52:00",19.7,17.7,0.0,0.0,1017.0
"2020-08-08 05:53:00",19.7,17.7,0.0,0.0,1017.0
"2020-08-08 05:54:00",19.7,17.7,0.0,0.0,1017.0
"2020-08-08 05:55:00",19.7,17.7,0.0,0.0,1017.0
"2020-08-08 05:56:00",19.7,17.7,0.0,0.0,1017.0
"2020-08-08 05:57:00",19.7,17.7,0.0,0.0,1017.0
"2020-08-08 05:58:00",19.7,17.7,0.0,0.0,1017.0
"2020-08-08 05:59:00",19.7,17.5,0.0,0.0,1017.0
"2020-08-08 06:00:00",19.7,17.5,0.0,0.0,1017.0
"2020-08-08 06:01:00",19.6,17.6,0.0,0.0,1017.0
"2020-08-08 06:02:00",19.6,17.6,0.0,0.0,1017.0
"2020-08-08 06:03:00",19.6,17.6,0.0,0.0,1017.0
"2020-08-08 06:04:00",19.6,17.6,0.0,0.0,1017.0
"2020-08-08 06:05:00",19.6,17.6,0.0,0.0,1017.0
"2020-08-08 06:06:00",19.6,17.6,0.0,0.0,1017.0
"2020-08-08 06:07:00",19.6,17.6,0.0,0.0,1017.0
"2020-08-08 06:08:00",19.6,17.6,0.0,0.0,1017.0
"2020-08-08 06:09:00",19.6,17.6,0.0,0.0,1017.1
"2020-08-08 06:10:00",19.6,17.6,0.0,0.0,1017.1
"2020-08-08 06:11:00",19.5,17.5,0.0,0.0,1017.1
"2020-08-08 06:12:00",19.5,17.5,0.0,0.0,1017.1
"2020-08-08 06:13:00",19.5,17.5,0.0,0.0,1017.2
"2020-08-08 06:14:00",19.5,17.5,0.0,0.0,1017.2
"2020-08-08 06:15:00",19.5,17.5,0.0,0.0,1017.2
"2020-08-08 06:16:00",19.5,17.5,0.0,0.0,1017.2
"2020-08-08 06:17:00",19.5,17.5,0.0,0.0,1017.2
"2020-08-08 06:18:00",19.6,17.6,0.0,0.0,1017.2
"2020-08-08 06:19:00",19.6,17.6,0.0,0.0,1017.2
"2020-08-08 06:20:00",19.6,17.6,0.0,0.0,1017.2
"2020-08-08 06:21:00",19.6,17.6,0.0,0.0,1017.2
"2020-08-08 06:22:00",19.6,17.6,0.0,0.0,1017.2
"2020-08-08 06:23:00",19.6,17.6,0.0,0.0,1017.3
"2020-08-08 06:24:00",19.6,17.6,0.0,0.0,1017.3
"2020-08-08 06:25:00",19.6,17.6,0.0,0.0,1017.2
"2020-08-08 06:26:00",19.6,17.6,0.0,0.0,1017.3
"2020-08-08 06:27:00",19.6,17.6,0.0,0.0,1017.2
"2020-08-08 06:28:00",19.6,17.6,0.0,0.0,1017.2
"2020-08-08 06:29:00",19.6,17.6,0.0,0.0,1017.2
"2020-08-08 06:30:00",19.6,17.6,0.0,0.0,1017.2
"2020-08-08 06:31:00",19.6,17.6,0.0,0.0,1017.1
"2020-08-08 06:32:00",19.6,17.6,0.0,0.0,1017.1
"2020-08-08 06:33:00",19.5,17.5,0.0,0.0,1017.1
"2020-08-08 06:34:00",19.5,17.5,0.0,0.0,1017.1
"2020-08-08 06:35:00",19.4,17.4,0.0,0.0,1017.1
"2020-08-08 06:36:00",19.5,17.5,0.0,0.0,1017.1
"2020-08-08 06:37:00",19.4,17.4,0.0,0.0,1017.1
"2020-08-08 06:38:00",19.4,17.4,0.0,0.0,1017.1
"2020-08-08 06:39:00",19.4,17.4,0.0,0.0,1017.1
"2020-08-08 06:40:00",19.4,17.4,0.0,0.0,1017.0
"2020-08-08 06:41:00",19.4,17.4,0.0,0.0,1017.0
"2020-08-08 06:42:00",19.4,17.4,0.0,0.0,1017.0
"2020-08-08 06:43:00",19.5,17.5,0.0,0.0,1017.1
"2020-08-08 06:44:00",19.5,17.5,0.0,0.0,1017.0
"2020-08-08 06:45:00",19.5,17.5,0.0,0.0,1017.1
"2020-08-08 06:46:00",19.6,17.6,0.0,0.0,1017.1
"2020-08-08 06:47:00",19.6,17.6,0.0,0.0,1017.1
"2020-08-08 06:48:00",19.6,17.6,0.0,0.0,1017.1
"2020-08-08 06:49:00",19.6,17.6,0.0,0.0,1017.1
"2020-08-08 06:50:00",19.6,17.6,0.0,0.0,1017.1
"2020-08-08 06:51:00",19.7,17.7,0.0,0.0,1017.2
"2020-08-08 06:52:00",19.7,17.7,0.0,0.0,1017.2
"2020-08-08 06:53:00",19.7,17.7,0.0,0.0,1017.2
"2020-08-08 06:54:00",19.7,17.7,0.0,0.0,1017.2
"2020-08-08 06:55:00",19.7,17.7,0.0,0.0,1017.2
"2020-08-08 06:56:00",19.8,17.8,0.0,0.0,1017.2
"2020-08-08 06:57:00",19.8,17.8,0.0,0.0,1017.3
"2020-08-08 06:58:00",19.8,17.6,0.0,0.0,1017.2
"2020-08-08 06:59:00",19.8,17.6,0.0,0.0,1017.3
"2020-08-08 07:00:00",19.8,17.6,0.0,0.0,1017.3
"2020-08-08 07:01:00",19.8,17.6,0.0,0.0,1017.3
"2020-08-08 07:02:00",19.9,17.7,0.0,0.0,1017.3
"2020-08-08 07:03:00",19.9,17.7,0.0,0.0,1017.3
"2020-08-08 07:04:00",19.9,17.7,0.0,0.0,1017.3
"2020-08-08 07:05:00",19.9,17.7,0.0,0.0,1017.3
"2020-08-08 07:06:00",19.9,17.7,0.0,0.0,1017.3
"2020-08-08 07:07:00",19.9,17.7,0.0,0.0,1017.3
"2020-08-08 07:08:00",19.9,17.7,0.0,0.0,1017.2
"2020-08-08 07:09:00",19.9,17.7,0.0,0.0,1017.2
"2020-08-08 07:10:00",19.9,17.7,0.0,0.0,1017.3
"2020-08-08 07:11:00",19.9,17.7,0.0,0.0,1017.2
"2020-08-08 07:12:00",19.9,17.7,0.0,0.0,1017.3
"2020-08-08 07:13:00",19.9,17.7,0.0,0.0,1017.3
"2020-08-08 07:14:00",19.9,17.7,0.0,0.0,1017.3
"2020-08-08 07:15:00",19.9,17.7,0.0,0.0,1017.3
"2020-08-08 07:16:00",19.9,17.7,0.0,0.0,1017.3
"2020-08-08 07:17:00",19.9,17.7,0.0,0.0,1017.3
"2020-08-08 07:18:00",19.9,17.7,0.0,0.0,1017.3
"2020-08-08 07:19:00",19.9,17.7,0.0,0.0,1017.3
"2020-08-08 07:20:00",19.9,17.9,0.0,0.0,1017.4
"2020-08-08 07:21:00",19.9,17.7,0.0,0.0,1017.3
"2020-08-08 07:22:00",20.0,17.8,0.0,0.0,1017.3
"2020-08-08 07:23:00",19.9,17.7,0.0,0.0,1017.3
"2020-08-08 07:24:00",20.0,17.8,0.0,0.0,1017.3
"2020-08-08 07:25:00",20.0,17.8,0.0,0.0,1017.3
"2020-08-08 07:26:00",20.0,18.0,0.0,0.0,1017.3
"2020-08-08 07:27:00",20.1,17.9,0.0,0.0,1017.3
"2020-08-08 07:28:00",20.1,17.9,0.0,0.0,1017.3
"2020-08-08 07:29:00",20.1,17.9,0.0,0.0,1017.3
"2020-08-08 07:30:00",20.1,18.0,0.0,0.0,1017.3
"2020-08-08 07:31:00",20.1,18.0,0.0,0.0,1017.3
"2020-08-08 07:32:00",20.1,18.0,0.0,0.0,1017.3
"2020-08-08 07:33:00",20.2,18.1,0.0,0.0,1017.3
"2020-08-08 07:34:00",20.2,18.0,0.0,0.0,1017.3
"2020-08-08 07:35:00",20.2,18.0,0.0,0.0,1017.3
"2020-08-08 07:36:00",20.2,18.0,0.0,0.0,1017.4
"2020-08-08 07:37:00",20.2,18.0,0.0,0.0,1017.3
"2020-08-08 07:38:00",20.3,18.1,0.0,0.0,1017.4
"2020-08-08 07:39:00",20.3,18.1,0.0,0.0,1017.3
"2020-08-08 07:40:00",20.3,18.1,0.0,0.0,1017.3
"2020-08-08 07:41:00",20.4,18.2,0.0,0.0,1017.3
"2020-08-08 07:42:00",20.4,18.2,0.0,0.0,1017.3
"2020-08-08 07:43:00",20.4,18.2,0.0,0.0,1017.3
"2020-08-08 07:44:00",20.4,18.2,0.0,0.0,1017.3
"2020-08-08 07:45:00",20.4,18.2,0.0,0.0,1017.3
"2020-08-08 07:46:00",20.5,18.3,0.0,0.0,1017.3
"2020-08-08 07:47:00",20.5,18.3,0.0,0.0,1017.3
"2020-08-08 07:48:00",20.6,18.2,0.0,0.0,1017.4
"2020-08-08 07:49:00",20.6,18.4,0.0,0.0,1017.4
"2020-08-08 07:50:00",20.6,18.2,0.0,0.5,1017.4
"2020-08-08 07:51:00",20.7,18.3,0.0,0.5,1017.4
"2020-08-08 07:52:00",20.7,18.3,0.0,0.5,1017.4
"2020-08-08 07:53:00",20.7,18.3,0.0,0.5,1017.4
"2020-08-08 07:54:00",20.7,18.3,0.0,0.5,1017.4
"2020-08-08 07:55:00",20.7,18.3,0.0,0.5,1017.5
"2020-08-08 07:56:00",20.7,18.3,0.0,0.5,1017.5
"2020-08-08 07:57:00",20.7,18.3,0.0,0.5,1017.5
"2020-08-08 07:58:00",20.7,18.3,0.0,0.5,1017.5
"2020-08-08 07:59:00",20.8,18.4,0.0,0.5,1017.5
"2020-08-08 08:00:00",20.8,18.4,0.0,0.5,1017.6
"2020-08-08 08:01:00",20.8,18.4,0.0,0.5,1017.5
"2020-08-08 08:02:00",20.9,18.5,0.0,0.5,1017.6
"2020-08-08 08:03:00",20.9,18.5,0.0,0.6,1017.5
"2020-08-08 08:04:00",20.9,18.5,0.0,0.6,1017.5
"2020-08-08 08:05:00",20.9,18.3,0.0,0.6,1017.6
"2020-08-08 08:06:00",20.9,18.3,0.0,0.6,1017.6
"2020-08-08 08:07:00",20.9,18.3,0.0,0.6,1017.6
"2020-08-08 08:08:00",20.9,18.3,0.0,0.6,1017.6
"2020-08-08 08:09:00",20.9,18.3,0.0,0.7,1017.6
"2020-08-08 08:10:00",21.1,18.5,0.0,0.7,1017.6
"2020-08-08 08:11:00",21.1,18.5,0.0,0.7,1017.5
"2020-08-08 08:12:00",21.2,18.4,0.0,0.7,1017.6
"2020-08-08 08:13:00",21.3,18.5,0.0,0.7,1017.6
"2020-08-08 08:14:00",21.4,18.6,0.0,0.7,1017.6
"2020-08-08 08:15:00",21.4,18.6,0.0,0.7,1017.6
"2020-08-08 08:16:00",21.5,18.7,0.0,0.7,1017.6
"2020-08-08 08:17:00",21.6,18.6,0.0,0.7,1017.6
"2020-08-08 08:18:00",21.6,18.4,0.0,0.8,1017.6
"2020-08-08 08:19:00",21.7,18.5,0.0,0.8,1017.6
"2020-08-08 08:20:00",21.7,18.5,0.0,0.8,1017.6
"2020-08-08 08:21:00",21.8,18.6,0.0,0.8,1017.6
"2020-08-08 08:22:00",21.9,18.7,0.0,0.8,1017.6
"2020-08-08 08:23:00",22.0,18.8,0.0,0.8,1017.5
"2020-08-08 08:24:00",22.1,18.5,0.0,0.8,1017.6
"2020-08-08 08:25:00",22.2,18.4,0.0,0.9,1017.6
"2020-08-08 08:26:00",22.3,18.5,0.0,0.9,1017.6
"2020-08-08 08:27:00",22.4,18.4,0.0,0.9,1017.6
"2020-08-08 08:28:00",22.6,18.6,0.0,0.9,1017.6